Location: Albany
(35.0170°S, 117.8920°E)
Time: 09:28:00
(UTC+08:00)

S-56A Canister/Altair - Pass Details

Date: 30 January 2021
Orbit: 632 x 2501 km, 38.9° (Epoch: 25 February)

Event Time Altitude Azimuth Distance (km) Brightness Sun altitude
Rises 20:56:55 0° 260° (W) 6,019 13.2 -18.5°
Reaches altitude 10° 21:06:44 10° 295° (WNW) 4,550 11.8 -20.0°
Maximum altitude 21:08:07 10° 301° (WNW) 4,443 11.6 -20.2°
Drops below altitude 10° 21:09:28 10° 308° (NW) 4,375 11.5 -20.4°
Sets 21:17:26 0° 346° (NNW) 4,760 11.3 -21.7°
